iso_date,epoch_date,Year,Hour,Min,DOY,POS_DOY,Lat,Lon,BP,Ts,Ta,has_bp,has_ts,has_ta,BuoyID,Buoy_Type,Buoy_Owner,Logistics,Hemisphere
2018-05-03T17:51:21Z,1525369882,2018,17,51,123.744,123.744,85.53739,-73.80907,-999.00,-999.00,-999.0,no,no,no,300234066309100,IT,YorkU,CASIMBO,North
2018-05-03T18:00:00Z,1525370400,2018,18,0,123.75,123.75,85.53736,-73.80925,-999.00,-999.00,-999.0,no,no,no,300234066309100,IT,YorkU,CASIMBO,North
2018-05-03T18:10:04Z,1525371005,2018,18,10,123.757,123.757,85.53735,-73.80946,-999.00,-999.00,-999.0,no,no,no,300234066309100,IT,YorkU,CASIMBO,North
2018-05-03T18:20:09Z,1525371610,2018,18,20,123.764,123.764,85.53734,-73.80955,-999.00,-999.00,-999.0,no,no,no,300234066309100,IT,YorkU,CASIMBO,North
2018-05-03T18:30:14Z,1525372214,2018,18,30,123.771,123.771,85.53733,-73.80963,-999.00,-999.00,-999.0,no,no,no,300234066309100,IT,YorkU,CASIMBO,North
2018-05-03T18:40:19Z,1525372819,2018,18,40,123.778,123.778,85.53732,-73.80973,-999.00,-999.00,-999.0,no,no,no,300234066309100,IT,YorkU,CASIMBO,North
2018-05-03T18:50:24Z,1525373424,2018,18,50,123.785,123.785,85.53732,-73.80973,-999.00,-999.00,-999.0,no,no,no,300234066309100,IT,YorkU,CASIMBO,North
2018-05-03T19:00:28Z,1525374029,2018,19,0,123.792,123.792,85.53732,-73.80955,-999.00,-999.00,-999.0,no,no,no,300234066309100,IT,YorkU,CASIMBO,North
2018-05-03T19:10:33Z,1525374634,2018,19,10,123.799,123.799,85.5373,-73.80975,-999.00,-999.00,-999.0,no,no,no,300234066309100,IT,YorkU,CASIMBO,North
2018-05-03T19:20:38Z,1525375238,2018,19,20,123.806,123.806,85.5373,-73.80976,-999.00,-999.00,-999.0,no,no,no,300234066309100,IT,YorkU,CASIMBO,North
2018-05-03T19:29:16Z,1525375757,2018,19,30,123.812,123.812,85.53729,-73.80974,-999.00,-999.00,-999.0,no,no,no,300234066309100,IT,YorkU,CASIMBO,North
2018-05-03T19:39:21Z,1525376362,2018,19,40,123.819,123.819,85.53729,-73.80984,-999.00,-999.00,-999.0,no,no,no,300234066309100,IT,YorkU,CASIMBO,North
2018-05-03T19:49:26Z,1525376966,2018,19,50,123.826,123.826,85.53728,-73.80983,-999.00,-999.00,-999.0,no,no,no,300234066309100,IT,YorkU,CASIMBO,North
2018-05-03T19:59:31Z,1525377571,2018,20,0,123.833,123.833,85.53728,-73.80999,-999.00,-999.00,-999.0,no,no,no,300234066309100,IT,YorkU,CASIMBO,North
2018-05-03T20:09:36Z,1525378176,2018,20,10,123.84,123.84,85.53727,-73.81003,-999.00,-999.00,-999.0,no,no,no,300234066309100,IT,YorkU,CASIMBO,North
2018-05-03T20:19:40Z,1525378781,2018,20,20,123.847,123.847,85.53726,-73.80997,-999.00,-999.00,-999.0,no,no,no,300234066309100,IT,YorkU,CASIMBO,North
2018-05-03T20:29:45Z,1525379386,2018,20,30,123.854,123.854,85.53726,-73.81,-999.00,-999.00,-999.0,no,no,no,300234066309100,IT,YorkU,CASIMBO,North
2018-05-03T20:39:50Z,1525379990,2018,20,40,123.861,123.861,85.53725,-73.80996,-999.00,-999.00,-999.0,no,no,no,300234066309100,IT,YorkU,CASIMBO,North
2018-05-03T20:49:55Z,1525380595,2018,20,50,123.868,123.868,85.53725,-73.80996,-999.00,-999.00,-999.0,no,no,no,300234066309100,IT,YorkU,CASIMBO,North
2018-05-03T21:00:00Z,1525381200,2018,21,0,123.875,123.875,85.53724,-73.80988,-999.00,-999.00,-999.0,no,no,no,300234066309100,IT,YorkU,CASIMBO,North
2018-05-03T21:10:04Z,1525381805,2018,21,10,123.882,123.882,85.53723,-73.80986,-999.00,-999.00,-999.0,no,no,no,300234066309100,IT,YorkU,CASIMBO,North
2018-05-03T21:20:09Z,1525382410,2018,21,20,123.889,123.889,85.53722,-73.80988,-999.00,-999.00,-999.0,no,no,no,300234066309100,IT,YorkU,CASIMBO,North
2018-05-03T21:30:14Z,1525383014,2018,21,30,123.896,123.896,85.53722,-73.80988,-999.00,-999.00,-999.0,no,no,no,300234066309100,IT,YorkU,CASIMBO,North
2018-05-03T21:40:19Z,1525383619,2018,21,40,123.903,123.903,85.53722,-73.80984,-999.00,-999.00,-999.0,no,no,no,300234066309100,IT,YorkU,CASIMBO,North
2018-05-03T21:50:24Z,1525384224,2018,21,50,123.91,123.91,85.53722,-73.80983,-999.00,-999.00,-999.0,no,no,no,300234066309100,IT,YorkU,CASIMBO,North
2018-05-03T22:00:28Z,1525384829,2018,22,0,123.917,123.917,85.53721,-73.80984,-999.00,-999.00,-999.0,no,no,no,300234066309100,IT,YorkU,CASIMBO,North
2018-05-03T22:10:33Z,1525385434,2018,22,10,123.924,123.924,85.53721,-73.80987,-999.00,-999.00,-999.0,no,no,no,300234066309100,IT,YorkU,CASIMBO,North
2018-05-03T22:20:38Z,1525386038,2018,22,20,123.931,123.931,85.5372,-73.80982,-999.00,-999.00,-999.0,no,no,no,300234066309100,IT,YorkU,CASIMBO,North
2018-05-03T22:30:43Z,1525386643,2018,22,30,123.938,123.938,85.53719,-73.80985,-999.00,-999.00,-999.0,no,no,no,300234066309100,IT,YorkU,CASIMBO,North
2018-05-03T22:39:21Z,1525387162,2018,22,40,123.944,123.944,85.53719,-73.80985,-999.00,-999.00,-999.0,no,no,no,300234066309100,IT,YorkU,CASIMBO,North
2018-05-03T22:49:26Z,1525387766,2018,22,50,123.951,123.951,85.53722,-73.80988,-999.00,-999.00,-999.0,no,no,no,300234066309100,IT,YorkU,CASIMBO,North
2018-05-03T22:59:31Z,1525388371,2018,23,0,123.958,123.958,85.53721,-73.80988,-999.00,-999.00,-999.0,no,no,no,300234066309100,IT,YorkU,CASIMBO,North
2018-05-03T23:09:36Z,1525388976,2018,23,10,123.965,123.965,85.53719,-73.80975,-999.00,-999.00,-999.0,no,no,no,300234066309100,IT,YorkU,CASIMBO,North
2018-05-03T23:19:40Z,1525389581,2018,23,20,123.972,123.972,85.53713,-73.80954,-999.00,-999.00,-999.0,no,no,no,300234066309100,IT,YorkU,CASIMBO,North
2018-05-03T23:29:45Z,1525390186,2018,23,30,123.979,123.979,85.53713,-73.80949,-999.00,-999.00,-999.0,no,no,no,300234066309100,IT,YorkU,CASIMBO,North
2018-05-03T23:39:50Z,1525390790,2018,23,40,123.986,123.986,85.53712,-73.80943,-999.00,-999.00,-999.0,no,no,no,300234066309100,IT,YorkU,CASIMBO,North
2018-05-03T23:49:55Z,1525391395,2018,23,50,123.993,123.993,85.53711,-73.80936,-999.00,-999.00,-999.0,no,no,no,300234066309100,IT,YorkU,CASIMBO,North
2018-05-04T00:00:00Z,1525392000,2018,0,0,124.0,124.0,85.53711,-73.8093,-999.00,-999.00,-999.0,no,no,no,300234066309100,IT,YorkU,CASIMBO,North
2018-05-04T00:10:04Z,1525392605,2018,0,10,124.007,124.007,85.53711,-73.80928,-999.00,-999.00,-999.0,no,no,no,300234066309100,IT,YorkU,CASIMBO,North
2018-05-04T00:20:09Z,1525393210,2018,0,20,124.014,124.014,85.53711,-73.80926,-999.00,-999.00,-999.0,no,no,no,300234066309100,IT,YorkU,CASIMBO,North
2018-05-04T00:30:14Z,1525393814,2018,0,30,124.021,124.021,85.5371,-73.80867,-999.00,-999.00,-999.0,no,no,no,300234066309100,IT,YorkU,CASIMBO,North
2018-05-04T00:40:19Z,1525394419,2018,0,40,124.028,124.028,85.5371,-73.80918,-999.00,-999.00,-999.0,no,no,no,300234066309100,IT,YorkU,CASIMBO,North
2018-05-04T00:50:24Z,1525395024,2018,0,50,124.035,124.035,85.53709,-73.8092,-999.00,-999.00,-999.0,no,no,no,300234066309100,IT,YorkU,CASIMBO,North
2018-05-04T01:00:28Z,1525395629,2018,1,0,124.042,124.042,85.53709,-73.80917,-999.00,-999.00,-999.0,no,no,no,300234066309100,IT,YorkU,CASIMBO,North
2018-05-04T01:10:33Z,1525396234,2018,1,10,124.049,124.049,85.53709,-73.80918,-999.00,-999.00,-999.0,no,no,no,300234066309100,IT,YorkU,CASIMBO,North
2018-05-04T01:20:38Z,1525396838,2018,1,20,124.056,124.056,85.53709,-73.80922,-999.00,-999.00,-999.0,no,no,no,300234066309100,IT,YorkU,CASIMBO,North
2018-05-04T01:29:16Z,1525397357,2018,1,30,124.062,124.062,85.53709,-73.80918,-999.00,-999.00,-999.0,no,no,no,300234066309100,IT,YorkU,CASIMBO,North
2018-05-04T01:39:21Z,1525397962,2018,1,40,124.069,124.069,85.53707,-73.80919,-999.00,-999.00,-999.0,no,no,no,300234066309100,IT,YorkU,CASIMBO,North
2018-05-04T01:49:26Z,1525398566,2018,1,50,124.076,124.076,85.53707,-73.80919,-999.00,-999.00,-999.0,no,no,no,300234066309100,IT,YorkU,CASIMBO,North
2018-05-04T01:59:31Z,1525399171,2018,2,0,124.083,124.083,85.53708,-73.80922,-999.00,-999.00,-999.0,no,no,no,300234066309100,IT,YorkU,CASIMBO,North
2018-05-04T02:09:36Z,1525399776,2018,2,10,124.09,124.09,85.53707,-73.80932,-999.00,-999.00,-999.0,no,no,no,300234066309100,IT,YorkU,CASIMBO,North
2018-05-04T02:19:40Z,1525400381,2018,2,20,124.097,124.097,85.53706,-73.80936,-999.00,-999.00,-999.0,no,no,no,300234066309100,IT,YorkU,CASIMBO,North
2018-05-04T02:29:45Z,1525400986,2018,2,30,124.104,124.104,85.53706,-73.80936,-999.00,-999.00,-999.0,no,no,no,300234066309100,IT,YorkU,CASIMBO,North
2018-05-04T02:39:50Z,1525401590,2018,2,40,124.111,124.111,85.53706,-73.80941,-999.00,-999.00,-999.0,no,no,no,300234066309100,IT,YorkU,CASIMBO,North
2018-05-04T02:49:55Z,1525402195,2018,2,50,124.118,124.118,85.53706,-73.80942,-999.00,-999.00,-999.0,no,no,no,300234066309100,IT,YorkU,CASIMBO,North
2018-05-04T03:00:00Z,1525402800,2018,3,0,124.125,124.125,85.53706,-73.80946,-999.00,-999.00,-999.0,no,no,no,300234066309100,IT,YorkU,CASIMBO,North
2018-05-04T03:10:04Z,1525403405,2018,3,10,124.132,124.132,85.53706,-73.80955,-999.00,-999.00,-999.0,no,no,no,300234066309100,IT,YorkU,CASIMBO,North
2018-05-04T03:20:09Z,1525404010,2018,3,20,124.139,124.139,85.53706,-73.80962,-999.00,-999.00,-999.0,no,no,no,300234066309100,IT,YorkU,CASIMBO,North
2018-05-04T03:30:14Z,1525404614,2018,3,30,124.146,124.146,85.53704,-73.80953,-999.00,-999.00,-999.0,no,no,no,300234066309100,IT,YorkU,CASIMBO,North
2018-05-04T03:40:19Z,1525405219,2018,3,40,124.153,124.153,85.53706,-73.80972,-999.00,-999.00,-999.0,no,no,no,300234066309100,IT,YorkU,CASIMBO,North
2018-05-04T03:50:24Z,1525405824,2018,3,50,124.16,124.16,85.53705,-73.80977,-999.00,-999.00,-999.0,no,no,no,300234066309100,IT,YorkU,CASIMBO,North
2018-05-04T04:00:28Z,1525406429,2018,4,0,124.167,124.167,85.53704,-73.80988,-999.00,-999.00,-999.0,no,no,no,300234066309100,IT,YorkU,CASIMBO,North
2018-05-04T04:10:33Z,1525407034,2018,4,10,124.174,124.174,85.53704,-73.80997,-999.00,-999.00,-999.0,no,no,no,300234066309100,IT,YorkU,CASIMBO,North
2018-05-04T04:20:38Z,1525407638,2018,4,20,124.181,124.181,85.53704,-73.81004,-999.00,-999.00,-999.0,no,no,no,300234066309100,IT,YorkU,CASIMBO,North
2018-05-04T04:30:43Z,1525408243,2018,4,30,124.188,124.188,85.53703,-73.81012,-999.00,-999.00,-999.0,no,no,no,300234066309100,IT,YorkU,CASIMBO,North
2018-05-04T04:39:21Z,1525408762,2018,4,40,124.194,124.194,85.53704,-73.81019,-999.00,-999.00,-999.0,no,no,no,300234066309100,IT,YorkU,CASIMBO,North
2018-05-04T04:49:26Z,1525409366,2018,4,50,124.201,124.201,85.53703,-73.8103,-999.00,-999.00,-999.0,no,no,no,300234066309100,IT,YorkU,CASIMBO,North
2018-05-04T04:59:31Z,1525409971,2018,5,0,124.208,124.208,85.53703,-73.81049,-999.00,-999.00,-999.0,no,no,no,300234066309100,IT,YorkU,CASIMBO,North
2018-05-04T05:09:36Z,1525410576,2018,5,10,124.215,124.215,85.53703,-73.81074,-999.00,-999.00,-999.0,no,no,no,300234066309100,IT,YorkU,CASIMBO,North
2018-05-04T05:19:40Z,1525411181,2018,5,20,124.222,124.222,85.53702,-73.81079,-999.00,-999.00,-999.0,no,no,no,300234066309100,IT,YorkU,CASIMBO,North
2018-05-04T05:29:45Z,1525411786,2018,5,30,124.229,124.229,85.53702,-73.81088,-999.00,-999.00,-999.0,no,no,no,300234066309100,IT,YorkU,CASIMBO,North
2018-05-04T05:39:50Z,1525412390,2018,5,40,124.236,124.236,85.53702,-73.81102,-999.00,-999.00,-999.0,no,no,no,300234066309100,IT,YorkU,CASIMBO,North
2018-05-04T05:49:55Z,1525412995,2018,5,50,124.243,124.243,85.53702,-73.81116,-999.00,-999.00,-999.0,no,no,no,300234066309100,IT,YorkU,CASIMBO,North
2018-05-04T06:00:00Z,1525413600,2018,6,0,124.25,124.25,85.53702,-73.8112,-999.00,-999.00,-999.0,no,no,no,300234066309100,IT,YorkU,CASIMBO,North
2018-05-04T06:10:04Z,1525414205,2018,6,10,124.257,124.257,85.53702,-73.81132,-999.00,-999.00,-999.0,no,no,no,300234066309100,IT,YorkU,CASIMBO,North
2018-05-04T06:20:09Z,1525414810,2018,6,20,124.264,124.264,85.53702,-73.81145,-999.00,-999.00,-999.0,no,no,no,300234066309100,IT,YorkU,CASIMBO,North
2018-05-04T06:30:14Z,1525415414,2018,6,30,124.271,124.271,85.53701,-73.81168,-999.00,-999.00,-999.0,no,no,no,300234066309100,IT,YorkU,CASIMBO,North
2018-05-04T06:40:19Z,1525416019,2018,6,40,124.278,124.278,85.53702,-73.81182,-999.00,-999.00,-999.0,no,no,no,300234066309100,IT,YorkU,CASIMBO,North
2018-05-04T06:50:24Z,1525416624,2018,6,50,124.285,124.285,85.53702,-73.81194,-999.00,-999.00,-999.0,no,no,no,300234066309100,IT,YorkU,CASIMBO,North
2018-05-04T07:00:28Z,1525417229,2018,7,0,124.292,124.292,85.53702,-73.81209,-999.00,-999.00,-999.0,no,no,no,300234066309100,IT,YorkU,CASIMBO,North
2018-05-04T07:10:33Z,1525417834,2018,7,10,124.299,124.299,85.53701,-73.81226,-999.00,-999.00,-999.0,no,no,no,300234066309100,IT,YorkU,CASIMBO,North
2018-05-04T07:20:38Z,1525418438,2018,7,20,124.306,124.306,85.53701,-73.81235,-999.00,-999.00,-999.0,no,no,no,300234066309100,IT,YorkU,CASIMBO,North
2018-05-04T07:29:16Z,1525418957,2018,7,30,124.312,124.312,85.53701,-73.81245,-999.00,-999.00,-999.0,no,no,no,300234066309100,IT,YorkU,CASIMBO,North
2018-05-04T07:39:21Z,1525419562,2018,7,40,124.319,124.319,85.53701,-73.81255,-999.00,-999.00,-999.0,no,no,no,300234066309100,IT,YorkU,CASIMBO,North
2018-05-04T07:49:26Z,1525420166,2018,7,50,124.326,124.326,85.53701,-73.81267,-999.00,-999.00,-999.0,no,no,no,300234066309100,IT,YorkU,CASIMBO,North
2018-05-04T07:59:31Z,1525420771,2018,8,0,124.333,124.333,85.537,-73.81276,-999.00,-999.00,-999.0,no,no,no,300234066309100,IT,YorkU,CASIMBO,North
2018-05-04T08:09:36Z,1525421376,2018,8,10,124.34,124.34,85.537,-73.8129,-999.00,-999.00,-999.0,no,no,no,300234066309100,IT,YorkU,CASIMBO,North
2018-05-04T08:19:40Z,1525421981,2018,8,20,124.347,124.347,85.53699,-73.81303,-999.00,-999.00,-999.0,no,no,no,300234066309100,IT,YorkU,CASIMBO,North
2018-05-04T08:29:45Z,1525422586,2018,8,30,124.354,124.354,85.53699,-73.81314,-999.00,-999.00,-999.0,no,no,no,300234066309100,IT,YorkU,CASIMBO,North
2018-05-04T08:39:50Z,1525423190,2018,8,40,124.361,124.361,85.53698,-73.81325,-999.00,-999.00,-999.0,no,no,no,300234066309100,IT,YorkU,CASIMBO,North
2018-05-04T08:49:55Z,1525423795,2018,8,50,124.368,124.368,85.53697,-73.81339,-999.00,-999.00,-999.0,no,no,no,300234066309100,IT,YorkU,CASIMBO,North
2018-05-04T09:00:00Z,1525424400,2018,9,0,124.375,124.375,85.53697,-73.81344,-999.00,-999.00,-999.0,no,no,no,300234066309100,IT,YorkU,CASIMBO,North
2018-05-04T09:10:04Z,1525425005,2018,9,10,124.382,124.382,85.53696,-73.81356,-999.00,-999.00,-999.0,no,no,no,300234066309100,IT,YorkU,CASIMBO,North
2018-05-04T09:20:09Z,1525425610,2018,9,20,124.389,124.389,85.53696,-73.81364,-999.00,-999.00,-999.0,no,no,no,300234066309100,IT,YorkU,CASIMBO,North
2018-05-04T09:30:14Z,1525426214,2018,9,30,124.396,124.396,85.53692,-73.81393,-999.00,-999.00,-999.0,no,no,no,300234066309100,IT,YorkU,CASIMBO,North
2018-05-04T09:40:19Z,1525426819,2018,9,40,124.403,124.403,85.53696,-73.81377,-999.00,-999.00,-999.0,no,no,no,300234066309100,IT,YorkU,CASIMBO,North
2018-05-04T09:50:24Z,1525427424,2018,9,50,124.41,124.41,85.53696,-73.8139,-999.00,-999.00,-999.0,no,no,no,300234066309100,IT,YorkU,CASIMBO,North
2018-05-04T10:00:28Z,1525428029,2018,10,0,124.417,124.417,85.53696,-73.81395,-999.00,-999.00,-999.0,no,no,no,300234066309100,IT,YorkU,CASIMBO,North
2018-05-04T10:10:33Z,1525428634,2018,10,10,124.424,124.424,85.53696,-73.81403,-999.00,-999.00,-999.0,no,no,no,300234066309100,IT,YorkU,CASIMBO,North
2018-05-04T10:20:38Z,1525429238,2018,10,20,124.431,124.431,85.53695,-73.81409,-999.00,-999.00,-999.0,no,no,no,300234066309100,IT,YorkU,CASIMBO,North
2018-05-04T10:30:43Z,1525429843,2018,10,30,124.438,124.438,85.53695,-73.81422,-999.00,-999.00,-999.0,no,no,no,300234066309100,IT,YorkU,CASIMBO,North
2018-05-04T10:39:21Z,1525430362,2018,10,40,124.444,124.444,85.53695,-73.81435,-999.00,-999.00,-999.0,no,no,no,300234066309100,IT,YorkU,CASIMBO,North
2018-05-04T10:49:26Z,1525430966,2018,10,50,124.451,124.451,85.53696,-73.8146,-999.00,-999.00,-999.0,no,no,no,300234066309100,IT,YorkU,CASIMBO,North
2018-05-04T10:59:31Z,1525431571,2018,11,0,124.458,124.458,85.53689,-73.81487,-999.00,-999.00,-999.0,no,no,no,300234066309100,IT,YorkU,CASIMBO,North
2018-05-04T11:09:36Z,1525432176,2018,11,10,124.465,124.465,85.53687,-73.81525,-999.00,-999.00,-999.0,no,no,no,300234066309100,IT,YorkU,CASIMBO,North
2018-05-04T11:19:40Z,1525432781,2018,11,20,124.472,124.472,85.53683,-73.81564,-999.00,-999.00,-999.0,no,no,no,300234066309100,IT,YorkU,CASIMBO,North
2018-05-04T11:29:45Z,1525433386,2018,11,30,124.479,124.479,85.5368,-73.81607,-999.00,-999.00,-999.0,no,no,no,300234066309100,IT,YorkU,CASIMBO,North
2018-05-04T11:39:50Z,1525433990,2018,11,40,124.486,124.486,85.53677,-73.81653,-999.00,-999.00,-999.0,no,no,no,300234066309100,IT,YorkU,CASIMBO,North
2018-05-04T11:49:55Z,1525434595,2018,11,50,124.493,124.493,85.53674,-73.81684,-999.00,-999.00,-999.0,no,no,no,300234066309100,IT,YorkU,CASIMBO,North
2018-05-04T12:00:00Z,1525435200,2018,12,0,124.5,124.5,85.53672,-73.81722,-999.00,-999.00,-999.0,no,no,no,300234066309100,IT,YorkU,CASIMBO,North
2018-05-04T12:10:04Z,1525435805,2018,12,10,124.507,124.507,85.5367,-73.81753,-999.00,-999.00,-999.0,no,no,no,300234066309100,IT,YorkU,CASIMBO,North
2018-05-04T12:20:09Z,1525436410,2018,12,20,124.514,124.514,85.5367,-73.81778,-999.00,-999.00,-999.0,no,no,no,300234066309100,IT,YorkU,CASIMBO,North
2018-05-04T12:30:14Z,1525437014,2018,12,30,124.521,124.521,85.5367,-73.81786,-999.00,-999.00,-999.0,no,no,no,300234066309100,IT,YorkU,CASIMBO,North
2018-05-04T12:40:19Z,1525437619,2018,12,40,124.528,124.528,85.53669,-73.818,-999.00,-999.00,-999.0,no,no,no,300234066309100,IT,YorkU,CASIMBO,North
2018-05-04T12:50:24Z,1525438224,2018,12,50,124.535,124.535,85.53669,-73.81813,-999.00,-999.00,-999.0,no,no,no,300234066309100,IT,YorkU,CASIMBO,North
2018-05-04T13:00:28Z,1525438829,2018,13,0,124.542,124.542,85.53668,-73.81831,-999.00,-999.00,-999.0,no,no,no,300234066309100,IT,YorkU,CASIMBO,North
2018-05-04T13:10:33Z,1525439434,2018,13,10,124.549,124.549,85.53667,-73.81863,-999.00,-999.00,-999.0,no,no,no,300234066309100,IT,YorkU,CASIMBO,North
2018-05-04T13:20:38Z,1525440038,2018,13,20,124.556,124.556,85.53666,-73.81889,-999.00,-999.00,-999.0,no,no,no,300234066309100,IT,YorkU,CASIMBO,North
2018-05-04T13:29:16Z,1525440557,2018,13,30,124.562,124.562,85.53663,-73.81925,-999.00,-999.00,-999.0,no,no,no,300234066309100,IT,YorkU,CASIMBO,North
2018-05-04T13:39:21Z,1525441162,2018,13,40,124.569,124.569,85.5366,-73.8196,-999.00,-999.00,-999.0,no,no,no,300234066309100,IT,YorkU,CASIMBO,North
2018-05-04T13:49:26Z,1525441766,2018,13,50,124.576,124.576,85.53657,-73.82008,-999.00,-999.00,-999.0,no,no,no,300234066309100,IT,YorkU,CASIMBO,North
2018-05-04T13:59:31Z,1525442371,2018,14,0,124.583,124.583,85.53655,-73.82035,-999.00,-999.00,-999.0,no,no,no,300234066309100,IT,YorkU,CASIMBO,North
2018-05-04T14:09:36Z,1525442976,2018,14,10,124.59,124.59,85.53654,-73.8207,-999.00,-999.00,-999.0,no,no,no,300234066309100,IT,YorkU,CASIMBO,North
2018-05-04T14:19:40Z,1525443581,2018,14,20,124.597,124.597,85.53652,-73.82104,-999.00,-999.00,-999.0,no,no,no,300234066309100,IT,YorkU,CASIMBO,North
2018-05-04T14:29:45Z,1525444186,2018,14,30,124.604,124.604,85.5365,-73.82141,-999.00,-999.00,-999.0,no,no,no,300234066309100,IT,YorkU,CASIMBO,North
2018-05-04T14:39:50Z,1525444790,2018,14,40,124.611,124.611,85.53648,-73.82175,-999.00,-999.00,-999.0,no,no,no,300234066309100,IT,YorkU,CASIMBO,North
2018-05-04T14:49:55Z,1525445395,2018,14,50,124.618,124.618,85.53649,-73.82183,-999.00,-999.00,-999.0,no,no,no,300234066309100,IT,YorkU,CASIMBO,North
2018-05-04T15:00:00Z,1525446000,2018,15,0,124.625,124.625,85.53648,-73.82204,-999.00,-999.00,-999.0,no,no,no,300234066309100,IT,YorkU,CASIMBO,North
2018-05-04T15:10:04Z,1525446605,2018,15,10,124.632,124.632,85.53649,-73.82222,-999.00,-999.00,-999.0,no,no,no,300234066309100,IT,YorkU,CASIMBO,North
2018-05-04T15:20:09Z,1525447210,2018,15,20,124.639,124.639,85.53648,-73.8223,-999.00,-999.00,-999.0,no,no,no,300234066309100,IT,YorkU,CASIMBO,North
2018-05-04T15:30:14Z,1525447814,2018,15,30,124.646,124.646,85.53648,-73.82224,-999.00,-999.00,-999.0,no,no,no,300234066309100,IT,YorkU,CASIMBO,North
2018-05-04T15:40:19Z,1525448419,2018,15,40,124.653,124.653,85.53649,-73.82268,-999.00,-999.00,-999.0,no,no,no,300234066309100,IT,YorkU,CASIMBO,North
2018-05-04T15:50:24Z,1525449024,2018,15,50,124.66,124.66,85.53648,-73.82296,-999.00,-999.00,-999.0,no,no,no,300234066309100,IT,YorkU,CASIMBO,North
2018-05-04T16:00:28Z,1525449629,2018,16,0,124.667,124.667,85.53645,-73.8234,-999.00,-999.00,-999.0,no,no,no,300234066309100,IT,YorkU,CASIMBO,North
2018-05-04T16:10:33Z,1525450234,2018,16,10,124.674,124.674,85.53642,-73.82393,-999.00,-999.00,-999.0,no,no,no,300234066309100,IT,YorkU,CASIMBO,North
2018-05-04T16:20:38Z,1525450838,2018,16,20,124.681,124.681,85.53639,-73.82441,-999.00,-999.00,-999.0,no,no,no,300234066309100,IT,YorkU,CASIMBO,North
2018-05-04T16:30:43Z,1525451443,2018,16,30,124.688,124.688,85.53634,-73.8251,-999.00,-999.00,-999.0,no,no,no,300234066309100,IT,YorkU,CASIMBO,North
2018-05-04T16:39:21Z,1525451962,2018,16,40,124.694,124.694,85.5363,-73.82591,-999.00,-999.00,-999.0,no,no,no,300234066309100,IT,YorkU,CASIMBO,North
2018-05-04T16:49:26Z,1525452566,2018,16,50,124.701,124.701,85.53625,-73.82664,-999.00,-999.00,-999.0,no,no,no,300234066309100,IT,YorkU,CASIMBO,North
2018-05-04T16:59:31Z,1525453171,2018,17,0,124.708,124.708,85.53622,-73.82756,-999.00,-999.00,-999.0,no,no,no,300234066309100,IT,YorkU,CASIMBO,North
2018-05-04T17:09:36Z,1525453776,2018,17,10,124.715,124.715,85.53619,-73.82864,-999.00,-999.00,-999.0,no,no,no,300234066309100,IT,YorkU,CASIMBO,North
2018-05-04T17:19:40Z,1525454381,2018,17,20,124.722,124.722,85.53615,-73.82967,-999.00,-999.00,-999.0,no,no,no,300234066309100,IT,YorkU,CASIMBO,North
2018-05-04T17:29:45Z,1525454986,2018,17,30,124.729,124.729,85.53611,-73.83073,-999.00,-999.00,-999.0,no,no,no,300234066309100,IT,YorkU,CASIMBO,North
2018-05-04T17:39:50Z,1525455590,2018,17,40,124.736,124.736,85.53608,-73.83176,-999.00,-999.00,-999.0,no,no,no,300234066309100,IT,YorkU,CASIMBO,North
2018-05-04T17:49:55Z,1525456195,2018,17,50,124.743,124.743,85.53604,-73.83268,-999.00,-999.00,-999.0,no,no,no,300234066309100,IT,YorkU,CASIMBO,North
2018-05-04T18:00:00Z,1525456800,2018,18,0,124.75,124.75,85.53602,-73.83361,-999.00,-999.00,-999.0,no,no,no,300234066309100,IT,YorkU,CASIMBO,North
2018-05-04T18:10:04Z,1525457405,2018,18,10,124.757,124.757,85.53601,-73.83432,-999.00,-999.00,-999.0,no,no,no,300234066309100,IT,YorkU,CASIMBO,North
2018-05-04T18:20:09Z,1525458010,2018,18,20,124.764,124.764,85.53601,-73.83459,-999.00,-999.00,-999.0,no,no,no,300234066309100,IT,YorkU,CASIMBO,North
2018-05-04T18:30:14Z,1525458614,2018,18,30,124.771,124.771,85.53599,-73.83448,-999.00,-999.00,-999.0,no,no,no,300234066309100,IT,YorkU,CASIMBO,North
2018-05-04T18:40:19Z,1525459219,2018,18,40,124.778,124.778,85.53599,-73.83534,-999.00,-999.00,-999.0,no,no,no,300234066309100,IT,YorkU,CASIMBO,North
2018-05-04T18:50:24Z,1525459824,2018,18,50,124.785,124.785,85.53596,-73.8362,-999.00,-999.00,-999.0,no,no,no,300234066309100,IT,YorkU,CASIMBO,North
2018-05-04T19:00:28Z,1525460429,2018,19,0,124.792,124.792,85.53589,-73.83762,-999.00,-999.00,-999.0,no,no,no,300234066309100,IT,YorkU,CASIMBO,North
2018-05-04T19:10:33Z,1525461034,2018,19,10,124.799,124.799,85.5358,-73.83897,-999.00,-999.00,-999.0,no,no,no,300234066309100,IT,YorkU,CASIMBO,North
2018-05-04T19:20:38Z,1525461638,2018,19,20,124.806,124.806,85.53574,-73.8404,-999.00,-999.00,-999.0,no,no,no,300234066309100,IT,YorkU,CASIMBO,North
2018-05-04T19:29:16Z,1525462157,2018,19,30,124.812,124.812,85.53567,-73.84185,-999.00,-999.00,-999.0,no,no,no,300234066309100,IT,YorkU,CASIMBO,North
2018-05-04T19:39:21Z,1525462762,2018,19,40,124.819,124.819,85.53559,-73.8434,-999.00,-999.00,-999.0,no,no,no,300234066309100,IT,YorkU,CASIMBO,North
2018-05-04T19:49:26Z,1525463366,2018,19,50,124.826,124.826,85.5355,-73.84512,-999.00,-999.00,-999.0,no,no,no,300234066309100,IT,YorkU,CASIMBO,North
2018-05-04T19:59:31Z,1525463971,2018,20,0,124.833,124.833,85.53541,-73.8471,-999.00,-999.00,-999.0,no,no,no,300234066309100,IT,YorkU,CASIMBO,North
2018-05-04T20:09:36Z,1525464576,2018,20,10,124.84,124.84,85.53533,-73.84883,-999.00,-999.00,-999.0,no,no,no,300234066309100,IT,YorkU,CASIMBO,North
2018-05-04T20:19:40Z,1525465181,2018,20,20,124.847,124.847,85.53525,-73.85053,-999.00,-999.00,-999.0,no,no,no,300234066309100,IT,YorkU,CASIMBO,North
2018-05-04T20:29:45Z,1525465786,2018,20,30,124.854,124.854,85.53515,-73.85227,-999.00,-999.00,-999.0,no,no,no,300234066309100,IT,YorkU,CASIMBO,North